Overview Statistics Trail Chart Weather Telemetry Raw packets
 

This is the latest recevied weather packets stored in our database for station/object N3LF. If no packets are shown the sender has not sent any weather packets the latest 10 day(s).

<< 58 59 60 61 62 63 64 >>
Time Temp. Humidity Pressure Rain* Wind** Luminosity Snow
1788226180 26.11° C 88% 1019.7 hPa 0 mm - 0 W/m² -
1788225873 26.11° C 88% 1019.6 hPa 0 mm - 0 W/m² -
1788225569 26.67° C 87% 1019.6 hPa 0 mm - 0 W/m² -
1788225265 26.67° C 86% 1019.7 hPa 0 mm - 0 W/m² -
1788224963 27.22° C 85% 1019.6 hPa 0 mm - 0 W/m² -
1788224658 27.22° C 84% 1019.5 hPa 0 mm - 0 W/m² -
1788224357 27.22° C 83% 1019.4 hPa 0 mm - 0 W/m² -
1788224052 27.78° C 81% 1019.4 hPa 0 mm - 0 W/m² -
1788223748 27.78° C 80% 1019.5 hPa 0 mm - 0 W/m² -
1788223447 28.33° C 78% 1019.4 hPa 0 mm - 0 W/m² -
1788223142 28.33° C 78% 1019.5 hPa 0 mm - 0 W/m² -
1788222837 28.89° C 77% 1019.5 hPa 0 mm - 0 W/m² -
1788222535 28.89° C 76% 1019.5 hPa 0 mm - 1 W/m² -
1788222234 28.89° C 76% 1019.5 hPa 0 mm - 2 W/m² -
1788221929 28.89° C 75% 1019.7 hPa 0 mm - 3 W/m² -
1788221625 29.44° C 76% 1019.4 hPa 0 mm - 6 W/m² -
1788221321 30° C 73% 1019.5 hPa 0 mm - 9 W/m² -
1788221016 30.56° C 71% 1019.5 hPa 0 mm - 12 W/m² -
1788220714 31.11° C 67% 1019.6 hPa 0 mm - 15 W/m² -
1788220410 31.67° C 67% 1019.5 hPa 0 mm - 18 W/m² -
1788220105 32.22° C 64% 1019.6 hPa 0 mm - 21 W/m² -
1788219805 32.78° C 62% 1019.5 hPa 0 mm - 24 W/m² -
1788219500 33.33° C 60% 1019.6 hPa 0 mm - 27 W/m² -
1788219195 33.89° C 57% 1019.7 hPa 0 mm - 34 W/m² -
1788218891 34.44° C 57% 1019.8 hPa 0 mm - 43 W/m² -

* Rain latest hour (hover to see other rain measurements)
** Current wind speed in m/s (hover to see current wind gust speed)